ATLAS 5 CENTAUR R/B, 40106

Orbit data source: Space-Track

ATLAS 5 CENTAUR R/B, 40106 is space debris in MEO originally from a launch on Sat, 02 Aug 2014 UTC launched from the Air Force Eastern Test Range (AFETR). Debris objects in space refer to the collection of defunct objects orbiting the Earth. Examples of debris include non-operational satellites, rocket bodies, and fragments generated from explosions, collisions, or faulty payload assembly.

Loading next visibility...
Identifier
40106, 2014-045B
Orbit
MEO
Country
Flag of USUS
Related business
Flag of USUnited Launch Alliance/Lockheed Martin (US)
Manufacturer
LMSS Denver
Mission
Spacecraft
Bus & Motor
CENTAUR SEC, RL10-4A-2
Mass
~2,020 kg wet, 2,020 kg dry
Launch date (UTC)
2014-08-02 (12 years ago)
Launch vehicle
Unknown
Launch site
Air Force Eastern Test Range (AFETR)
Object type
Payload
Rocket body
Debris
Shape & HBR
Cyl + 1 Nozzle, 5.8 m
Radar Cross Section
32.260 m², Large (>1 m²)

Expand to show TLE details & history
Last TLE update: 1 day ago

TLE from 1 day ago
0 ATLAS 5 CENTAUR R/B
1 40106U 14045B   26061.72268848  .00000024  00000-0  00000+0 0  9990
2 40106  55.2649 110.5649 0152226  23.7654 337.0156  1.90830577 80727
Epoch: 2026-03-02T17:20Z
TLE epoch observation values (Epoch: 2026-03-02T17:20:40.284Z)
Latitude
0.00005°
Longitude
49.9038°
Altitude
20,694.732 km
Speed
3.864 km/s
True Right ascension
07h 22m 20s
True Declination
0° 00' 00"
Sunlit
Object was in daylight at epoch
Visualization orbit readout
Latitude
Unknown
Longitude
Unknown
Altitude
Unknown
Speed
Unknown
Apparent Right ascension
Unknown
Apparent Declination
Unknown
Sunlit
N/A
Visualization observer readout
Local Sidereal Time
23:30:54
Azimuth
Unknown
Elevation
Unknown
Doppler factor
Unknown
Orbital elements
Apogee altitude
21,495.763 km
Perigee altitude
20,659.862 km
Semi-major axis
27,455.95 km
Eccentricity
0.01522
Inclination
55.2649°
RAAN
110.5649°
Arg. of periapsis
23.7654°
True anomaly
336.32233°
Mean anomaly
337.0156°
Eccentric anomaly
336.67019°
Mean motion
0.47708 °/min
Orbital period
754.6 mins
BSTAR
0
Loading maneuver chart data...
Computing Atmospheric mass density...
Loading historical data...
Loading historical data...
Loading historical data...
Loading historical data...
Loading historical data...
Loading historical data...
Loading historical data...
Other satellites on launch #45 in the year 2014 (2014-08-02 UTC)

Documentation

Showing up to 5 results
|